Regional Weather Roundup
Issued by NWS Goodland, KS

Home | Current Version | Previous Version | Text Only | Print | Product List | Glossary On
Versions: 1 2 3 4 5 6 7 8 9 10 11 12 13 14 15 16 17 18 19 20 21 22 23 24 25 26 27 28 29 30 31 32 33 34 35 36 37 38 39 40 41 42 43 44 45 46 47 48 49 50
000
ASUS43 KGLD 251408
RWRGLD

GOODLAND FORECAST AREA HOURLY WEATHER ROUNDUP
NATIONAL WEATHER SERVICE GOODLAND KS
700 AM MST SUN JAN 25 2015

...OFFICIAL OBSERVATIONS...

CITY           SKY/WX    TMP DP  RH WIND       PRES   REMARKS
GOODLAND KS    CLEAR     37  25  61 NW15      30.08R
HILL CITY KS   CLEAR     38  26  62 NW18G26   30.03R
IMPERIAL NEB   CLEAR     33  23  66 NW13      30.07S
MCCOOK NEB     CLEAR     37  25  61 NW16      30.04R
AKRON CO       CLEAR     30  26  85 NW6       30.11R
BURLINGTON CO  CLEAR     34  26  72 NW18      30.11R
LIMON CO       PTCLDY    28  24  85 W8        30.14S
$$

...UNOFFICIAL OBSERVATIONS...

CITY           SKY/WX    TMP DP  RH WIND       PRES   REMARKS
COLBY KS       CLEAR     34  28  80 NW8       30.08R
GOVE KS          N/A     35  32  89 MISG        N/A
NORTON KS      CLEAR     36  25  64 W15G22    30.02R
SHARON SPRINGS   N/A     37  27  67 NW13G21     N/A
KIT CARSON CO    N/A     32  25  74 MISG        N/A
YUMA CO          N/A     31  25  77 N14         N/A
$$



USA.gov is the U.S. government's official web portal to all federal, state and local government web resources and services.